Kuchera_Ratio
0.0 0.0 0.0 0.0 0.0 0.0 0.0 7.0 14.7 0.0 0.0 13.4 15.1 17.1 14.3 7.0 11.5 10.2 12.2 12.9 13.9 16.6 16.4 17.8 16.5 17.1 14.1 7.6 9.4 14.5 11.9 16.5 19.5 17.4 14.0 13.1 14.9 16.7 16.9 18.7 18.9 17.7 16.4 17.8
0.0 0.0 0.0 0.0 0.0 0.0 3.8 12.9 12.7 0.0 1.1 18.1 17.4 14.5 13.1 11.4 12.9 12.7 13.0 14.1 13.2 14.5 16.7 19.5 16.5 15.4 9.8 9.6 11.9 14.0 12.1 18.0 21.4 18.9 16.4 14.2 17.0 16.0 16.0 18.1 17.9 20.3 19.6 18.5
0.0 0.0 0.0 0.0 0.0 0.0 2.6 12.5 16.5 12.8 11.5 14.0 18.3 18.6 16.3 15.6 10.4 12.3 12.1 13.2 12.9 15.7 17.1 15.9 19.1 16.4 12.3 10.5 12.2 4.9 11.1 15.5 17.9 21.9 19.8 16.6 18.8 18.0 16.0 17.8 21.2 22.7 19.8 18.6
0.0 0.0 0.0 0.0 0.0 0.0 2.0 12.9 15.0 14.4 16.5 15.2 16.9 17.6 16.2 16.7 16.7 13.5 12.6 14.2 14.8 15.9 19.8 17.9 18.5 15.9 15.2 12.9 11.7 13.8 15.8 20.0 18.0 17.1 15.8 17.9 19.6 19.6 17.9 18.9 19.0 20.6 20.2 19.4
0.0 0.0 0.0 0.0 0.0 0.0 6.4 14.9 15.7 15.1 15.7 15.3 18.0 17.6 17.7 16.9 16.0 15.5 16.4 16.5 15.4 16.0 17.7 17.7 18.8 16.9 17.0 17.6 16.3 17.1 16.5 21.1 18.7 20.5 16.2 17.6 22.6 20.9 19.4 18.9 19.5 19.0 19.3 19.0
0.0 0.0 0.0 0.0 0.0 0.0 7.8 4.6 8.0 15.1 15.6 16.4 18.3 17.0 16.7 15.9 14.9 13.9 12.8 14.7 16.3 17.1 16.4 15.5 14.8 14.7 15.1 16.7 19.3 19.7 19.2 21.5 21.5 24.8 19.1 19.6 25.7 23.6 21.4 20.9 19.7 19.7 23.5 21.6
0.0 0.0 0.0 0.0 0.0 0.0 4.0 5.7 9.0 14.9 18.9 16.4 15.7 15.4 14.9 16.6 15.4 16.8 14.5 14.4 16.7 13.6 12.7 12.1 12.7 14.0 14.9 15.9 17.8 17.1 21.5 21.8 20.4 25.1 21.4 30.0 23.1 18.8 19.2 21.5 19.7 20.4 20.3 19.8
0.0 0.0 0.0 0.0 0.0 0.0 4.2 6.3 9.8 15.5 20.0 16.0 15.9 16.0 16.6 15.8 15.0 16.6 15.9 14.3 12.7 12.5 14.7 18.8 20.4 19.0 18.6 19.0 18.2 18.9 20.4 22.6 24.6 25.1 27.8 24.6 23.3 21.8 23.0 23.7 23.3 20.3 21.6 20.1
0.0 0.0 0.0 0.0 0.0 0.0 4.2 6.9 7.3 11.6 16.7 18.9 15.0 17.8 17.9 20.1 20.2 19.1 16.0 13.3 12.4 13.2 14.6 19.2 23.2 25.5 23.5 24.5 22.6 17.9 18.3 22.1 24.0 25.1 28.2 30.1 25.3 20.7 18.3 19.7 25.9 20.2 20.0 20.4
0.0 0.0 0.0 0.0 0.0 0.0 2.4 7.1 5.4 9.8 17.1 15.2 15.2 18.6 17.9 15.8 18.7 22.1 18.9 16.7 16.2 13.9 17.7 21.2 24.3 26.3 22.7 29.8 27.7 25.9 25.0 26.3 27.1 25.6 26.8 25.5 21.7 20.6 18.2 28.5 26.3 19.9 19.3 19.3
0.0 0.0 0.0 0.0 0.0 0.0 1.8 8.5 5.8 8.4 16.8 13.8 12.9 12.2 16.3 16.9 18.1 22.3 17.7 19.1 18.1 19.3 22.2 22.3 23.3 25.0 26.6 26.3 24.8 26.2 27.2 29.0 26.5 24.5 27.9 31.4 19.8 20.5 25.6 21.9 19.9 19.2 18.8 18.7
0.0 0.0 0.0 0.0 0.0 0.0 0.0 7.4 5.9 6.1 10.4 13.6 10.8 9.2 8.8 13.2 13.5 17.9 17.2 17.7 17.0 16.6 20.4 20.8 21.2 23.9 23.9 27.5 29.9 22.8 27.7 25.4 26.7 26.6 24.5 20.3 19.2 20.3 18.6 18.9 20.3 19.5 19.4 17.8
0.0 0.0 0.0 0.0 0.0 0.0 0.3 7.0 7.4 8.0 12.8 13.3 12.3 14.1 10.6 8.0 9.1 9.9 17.9 15.9 14.8 17.0 16.4 19.0 22.1 26.9 23.0 28.2 26.9 25.5 22.6 21.0 25.4 24.5 21.7 21.8 20.8 18.9 18.3 18.7 19.6 18.6 18.0 17.6
0.0 0.0 0.0 0.0 0.0 0.0 0.0 6.8 8.3 8.9 13.6 16.8 16.7 8.2 10.2 8.1 10.1 11.2 12.6 13.5 13.9 15.0 16.4 19.2 22.3 23.3 20.3 25.1 25.5 25.5 24.0 22.7 24.8 24.6 22.1 21.5 18.8 19.7 19.3 19.3 18.6 18.8 17.5 17.4
0.0 0.0 0.0 0.0 0.0 0.0 2.8 5.7 6.8 6.9 12.4 16.7 16.0 11.1 7.9 8.3 8.6 11.5 11.3 12.5 14.1 17.5 18.1 22.4 23.2 20.8 22.3 23.5 23.1 25.2 23.0 25.5 26.9 26.9 23.3 22.9 22.5 20.0 18.6 20.0 20.0 19.2 18.5 18.7
0.0 0.0 0.0 0.0 0.0 0.0 5.9 10.7 6.4 3.7 8.3 14.2 19.8 12.6 12.8 11.2 9.8 10.8 12.4 13.6 14.4 17.9 18.8 20.8 19.6 19.8 21.3 24.8 26.2 22.6 22.9 21.8 22.0 23.5 20.8 21.7 20.8 19.1 19.0 20.4 19.6 18.9 18.6 18.2
0.0 0.0 0.0 0.0 0.0 3.8 9.6 12.3 9.0 1.1 7.7 14.3 18.2 17.5 13.5 13.0 13.0 13.0 12.7 13.1 15.5 17.7 18.6 19.6 20.1 20.6 20.6 25.0 27.7 22.4 22.4 21.3 21.1 19.7 21.0 23.2 21.1 22.3 20.2 20.1 19.4 18.0 18.1 17.9
0.0 0.0 0.0 0.0 0.0 0.3 8.8 5.8 3.0 5.6 12.0 14.7 20.2 20.6 17.5 14.3 17.7 16.9 14.9 16.5 17.0 18.2 19.0 19.6 20.4 20.9 21.8 24.8 22.4 22.4 23.0 21.8 20.9 21.0 21.3 21.7 21.0 20.8 20.4 20.0 19.8 20.1 20.2 19.0
0.0 0.0 0.0 2.9 5.4 9.5 9.3 0.0 4.1 8.4 12.7 18.0 19.8 23.5 22.7 15.4 16.5 16.2 17.1 17.0 21.0 19.2 19.6 20.3 20.8 24.3 24.9 24.6 22.8 22.5 23.0 23.6 23.8 21.7 21.5 21.5 21.8 22.0 21.2 20.2 20.3 20.9 20.6 19.4
0.0 2.3 6.1 12.2 10.2 0.0 2.1 8.8 12.7 14.7 16.5 17.3 20.5 20.1 22.4 19.2 19.6 19.0 18.6 18.4 21.4 21.8 23.2 20.7 23.5 24.4 21.8 22.0 20.2 20.6 20.7 20.8 21.4 23.5 23.6 22.1 22.0 21.5 21.2 21.1 19.8 19.4 19.5 19.1
4.6 9.0 11.6 9.6 3.8 10.1 14.3 16.5 18.2 19.6 20.8 20.7 21.2 21.4 22.5 17.3 22.4 22.5 20.6 21.6 22.1 25.5 23.4 23.3 25.6 26.0 22.0 19.9 19.8 19.4 20.1 20.6 20.9 21.0 20.8 20.7 21.2 21.4 21.0 20.8 20.1 19.5 19.5 19.7
9.1 9.4 10.6 11.0 14.0 14.7 17.1 19.6 20.3 20.9 22.1 21.0 21.6 21.8 22.0 20.8 18.8 19.9 21.6 21.5 22.3 25.5 23.8 24.3 26.3 23.7 21.6 21.4 19.6 19.6 20.2 20.4 20.5 19.8 20.7 20.8 19.8 20.4 21.0 20.6 20.5 20.1 19.9 19.6
7.6 10.3 13.8 15.9 17.8 18.1 19.9 22.3 21.0 21.2 21.3 21.5 21.9 22.3 21.4 20.1 20.0 22.1 22.5 22.8 25.7 23.6 25.8 26.0 24.2 21.5 21.6 20.6 20.2 20.1 19.8 19.9 20.1 20.2 19.7 19.6 19.8 19.8 20.4 21.2 20.5 20.8 21.5 20.7
13.5 14.7 17.5 18.9 19.6 20.3 20.6 21.1 21.6 20.3 20.7 21.4 22.1 22.4 22.3 21.3 22.2 22.9 23.2 24.4 24.5 26.2 26.6 25.8 23.0 20.9 21.4 20.1 20.1 21.0 20.7 20.2 20.5 20.5 20.3 20.5 20.9 21.0 21.0 20.7 21.2 22.1 22.6 20.5
15.0 15.7 19.4 19.8 20.1 20.3 20.3 20.5 20.8 20.2 20.2 21.0 22.6 22.9 23.1 23.4 23.3 23.5 23.8 26.0 26.0 26.0 25.6 22.9 20.7 21.2 20.2 20.6 20.3 20.5 20.5 20.6 20.8 20.7 21.4 21.3 21.3 21.5 21.7 21.3 21.6 22.1 21.8 21.4
16.3 17.8 19.4 19.9 20.1 19.5 19.8 19.7 20.0 19.5 19.7 20.1 21.3 23.6 23.6 23.8 24.4 24.8 25.2 25.8 25.1 23.6 22.7 20.1 21.0 20.7 19.8 20.0 19.9 20.0 20.0 20.2 20.4 20.7 20.9 20.7 21.2 21.7 21.9 22.1 22.2 21.8 21.5 21.8
16.8 18.3 18.1 18.6 18.5 18.5 19.0 19.4 19.7 19.4 20.9 21.8 22.8 23.4 24.5 24.4 25.1 24.9 25.0 24.7 21.8 19.5 20.1 20.4 19.4 19.7 19.3 19.3 19.6 19.6 19.7 19.9 19.9 20.2 20.4 20.8 20.5 21.4 22.5 23.0 21.7 21.2 21.0 21.3